TDRS 8 (26388 NORAD) Tracking and Keplerian Element Data

This shows tracking and keplerian element data for the satellite.

Feedback or suggestion? Click here.




ElementValue
Catalog26388
NameTDRS 8
Epoch Orbit9018
Epoch Day34.7217144
Epoch Year2025
RAAN35.3837
Inclination11.9
Eccentricity0.0007188
Argument of Perigee244.5414
Mean Anonmoly306.3774
Mean Motion1.00269028
Decay Rate9.4E-07
L11 26388U 00034A 25034.72171440 .00000094 00000+0 00000+0 0 9995
L22 26388 11.9000 35.3837 0007188 244.5414 306.3774 1.00269028 90183



Live tracking and technical data element details for TDRS 8 (NORAD 26388). TDRS 8 can be tracked NOW for your location showing map with azimuth and elevation plus other details from your city location.







IsCatalogInMostPopularTable: catalog: 26388, numindb: 325
Update: records affected: 1



GetName: 26388 TDRS 8

Hit Count: updated at: Fri, 16 May 2025 10:13:42 GMT